TimeEDT,TemperatureF,Dew PointF,Humidity,Sea Level PressureIn,VisibilityMPH,Wind Direction,Wind SpeedMPH,Gust SpeedMPH,PrecipitationIn,Events,Conditions,WindDirDegrees,DateUTC
12:54 AM,66.0,63.0,90,29.99,9.0,Calm,Calm,-,N/A,,Partly Cloudy,0,2013-08-29 04:54:00
1:54 AM,64.0,63.0,96,29.99,6.0,Calm,Calm,-,N/A,,Clear,0,2013-08-29 05:54:00
2:54 AM,63.0,61.0,93,29.99,7.0,Calm,Calm,-,N/A,,Clear,0,2013-08-29 06:54:00
3:54 AM,63.0,61.0,93,30.00,10.0,Calm,Calm,-,N/A,,Partly Cloudy,0,2013-08-29 07:54:00
4:54 AM,63.0,61.0,93,30.01,8.0,Calm,Calm,-,N/A,,Clear,0,2013-08-29 08:54:00
5:54 AM,63.0,61.0,93,30.04,9.0,Calm,Calm,-,N/A,,Clear,0,2013-08-29 09:54:00
6:46 AM,62.6,60.8,94,30.07,8.0,Calm,Calm,-,0.01,,Overcast,0,2013-08-29 10:46:00
6:54 AM,63.0,61.0,93,30.07,8.0,Calm,Calm,-,0.01,,Overcast,0,2013-08-29 10:54:00
7:46 AM,64.4,62.6,94,30.08,10.0,South,3.5,-,N/A,,Overcast,190,2013-08-29 11:46:00
7:54 AM,64.9,63.0,93,30.07,10.0,Calm,Calm,-,N/A,,Overcast,0,2013-08-29 11:54:00
8:54 AM,66.9,64.0,90,30.08,10.0,Calm,Calm,-,N/A,,Overcast,0,2013-08-29 12:54:00
9:29 AM,68.0,62.6,83,30.09,10.0,South,3.5,-,N/A,,Overcast,190,2013-08-29 13:29:00
9:54 AM,69.1,63.0,81,30.09,10.0,South,3.5,-,N/A,,Overcast,190,2013-08-29 13:54:00
10:38 AM,69.8,62.6,78,30.09,10.0,Variable,4.6,-,N/A,,Overcast,0,2013-08-29 14:38:00
10:54 AM,71.1,62.1,73,30.09,10.0,Variable,4.6,-,N/A,,Overcast,0,2013-08-29 14:54:00
11:01 AM,71.6,60.8,69,30.09,10.0,Variable,4.6,-,N/A,,Overcast,0,2013-08-29 15:01:00
11:49 AM,71.6,62.6,73,30.08,10.0,South,3.5,-,N/A,,Overcast,190,2013-08-29 15:49:00
11:54 AM,71.1,62.1,73,30.08,10.0,Calm,Calm,-,N/A,,Overcast,0,2013-08-29 15:54:00
12:54 PM,73.9,63.0,68,30.07,10.0,Variable,3.5,-,N/A,,Overcast,0,2013-08-29 16:54:00
1:54 PM,75.0,62.1,64,30.05,10.0,South,3.5,-,N/A,,Partly Cloudy,170,2013-08-29 17:54:00
2:54 PM,77.0,61.0,58,30.04,10.0,Calm,Calm,-,N/A,,Scattered Clouds,0,2013-08-29 18:54:00
3:54 PM,78.1,61.0,56,30.04,10.0,Calm,Calm,-,N/A,,Mostly Cloudy,0,2013-08-29 19:54:00
4:13 PM,71.6,64.4,78,30.06,1.8,North,13.8,17.3,0.06,Rain,Heavy Rain,350,2013-08-29 20:13:00
4:18 PM,68.0,64.4,88,30.06,0.8,NNW,11.5,18.4,0.20,Rain,Heavy Rain,340,2013-08-29 20:18:00
4:25 PM,66.2,64.4,94,30.05,0.5,NNW,5.8,-,0.35,Fog-Rain-Thunderstorm,Heavy Thunderstorms and Rain,340,2013-08-29 20:25:00
4:32 PM,66.2,64.4,94,30.05,0.8,Calm,Calm,-,0.39,Rain-Thunderstorm,Thunderstorms and Rain,0,2013-08-29 20:32:00
4:35 PM,68.0,66.2,94,30.05,1.2,Calm,Calm,-,0.39,Rain-Thunderstorm,Light Thunderstorms and Rain,0,2013-08-29 20:35:00
4:39 PM,68.0,66.2,94,30.04,3.0,South,4.6,-,0.40,Rain-Thunderstorm,Light Thunderstorms and Rain,180,2013-08-29 20:39:00
4:46 PM,66.2,64.4,94,30.04,9.0,Calm,Calm,-,0.40,Rain,Light Rain,0,2013-08-29 20:46:00
4:54 PM,66.9,64.0,90,30.04,10.0,Calm,Calm,-,0.40,,Mostly Cloudy,0,2013-08-29 20:54:00
5:54 PM,70.0,63.0,78,30.02,10.0,Calm,Calm,-,N/A,,Clear,0,2013-08-29 21:54:00
6:54 PM,66.9,64.0,90,30.04,10.0,Calm,Calm,-,N/A,,Clear,0,2013-08-29 22:54:00
7:54 PM,64.9,63.0,93,30.04,10.0,Calm,Calm,-,N/A,,Scattered Clouds,0,2013-08-29 23:54:00
8:26 PM,64.4,62.6,94,30.05,2.5,Calm,Calm,-,N/A,,Mostly Cloudy,0,2013-08-30 00:26:00
8:28 PM,64.4,62.6,94,30.05,1.0,Calm,Calm,-,N/A,,Mostly Cloudy,0,2013-08-30 00:28:00
8:35 PM,62.6,62.6,100,30.05,0.5,Calm,Calm,-,N/A,Fog,Fog,0,2013-08-30 00:35:00
8:40 PM,62.6,62.6,100,30.05,1.2,Calm,Calm,-,N/A,,Mostly Cloudy,0,2013-08-30 00:40:00
8:46 PM,64.4,62.6,94,30.05,3.0,Calm,Calm,-,N/A,,Mostly Cloudy,0,2013-08-30 00:46:00
8:54 PM,64.0,62.1,93,30.04,8.0,Calm,Calm,-,N/A,,Overcast,0,2013-08-30 00:54:00
9:25 PM,62.6,60.8,94,30.04,1.5,Calm,Calm,-,N/A,,Partly Cloudy,0,2013-08-30 01:25:00
9:27 PM,62.6,60.8,94,30.04,0.8,Calm,Calm,-,N/A,,Mist,0,2013-08-30 01:27:00
9:50 PM,62.6,60.8,94,30.03,1.5,Calm,Calm,-,N/A,,Mostly Cloudy,0,2013-08-30 01:50:00
9:54 PM,62.1,61.0,96,30.04,4.0,SSW,3.5,-,N/A,,Mostly Cloudy,200,2013-08-30 01:54:00
9:59 PM,62.6,60.8,94,30.04,1.5,Calm,Calm,-,N/A,,Mostly Cloudy,0,2013-08-30 01:59:00
10:02 PM,62.6,60.8,94,30.04,0.8,Calm,Calm,-,N/A,,Mist,0,2013-08-30 02:02:00
10:54 PM,62.1,62.1,100,30.04,0.2,Calm,Calm,-,N/A,Fog,Fog,0,2013-08-30 02:54:00
11:54 PM,62.1,61.0,96,30.03,0.5,Calm,Calm,-,N/A,Fog,Fog,0,2013-08-30 03:54:00